Regional Weather Roundup
Issued by NWS

Home | Current Version | Previous Version | Graphics & Text | Print | Product List | Glossary On
Versions: 1 2 3 4 5 6 7 8 9 10 11 12 13 14 15 16 17 18 19 20 21 22 23 24 25 26 27 28 29 30 31 32 33 34 35 36 37 38 39 40 41 42 43 44 45 46 47 48 49 50
000
ASUS45 KCYS 230010
RWRWY

WYOMING REGIONAL WEATHER ROUNDUP
NATIONAL WEATHER SERVICE CHEYENNE WY
500 PM MST SAT NOV 22 2014

NOTE:  "FAIR" INDICATES FEW OR NO CLOUDS BELOW 12,000 FEET
WITH NO SIGNIFICANT WEATHER AND/OR OBSTRUCTIONS TO VISIBILITY.

WYZ001-230100-
YELLOWSTONE NATIONAL PARK

CITY           SKY/WX    TMP DP  RH WIND       PRES   REMARKS
LK YELLOWSTONE   N/A     23  15  71 W8        29.63R WCI  14
6HR MIN TEMP:  23; 6HR MAX TEMP:  33; 6HR PCP:  0.06;

W YELLOWSTONE  NOT AVBL

$$
WYZ002>013-054>058-071-098>099-230100-
NORTHERN WYOMING

CITY           SKY/WX    TMP DP  RH WIND       PRES   REMARKS
JACKSON        SNOW      30  30 100 W12G21    29.66R VSB 1/2 WCI  21
CODY           CLOUDY    36  32  87 SW13      29.51R WCI  27
GREYBULL       CLOUDY    39  30  70 NW17      29.48R WCI  30
6HR MIN TEMP:  31; 6HR MAX TEMP:  43;

WORLAND        CLOUDY    39  30  70 S6        29.43F WCI  35
6HR MIN TEMP:  33; 6HR MAX TEMP:  46;

SHERIDAN       LGT RAIN  40  31  70 NW38G56   29.48R SQUALL  WCI  27
6HR MIN TEMP:  40; 6HR MAX TEMP:  63; 6HR PCP: TRACE;

BUFFALO        PTCLDY    45  28  51 W14G21    29.40S
6HR MIN TEMP:  44; 6HR MAX TEMP:  54;

GILLETTE       CLOUDY    42  31  64 SW22G29   29.40R
6HR MIN TEMP:  42; 6HR MAX TEMP:  44;

HULETT           N/A    N/A N/A N/A MISG        N/A
NEWCASTLE      FAIR      43  30  61 W3        29.50R

$$
WYZ014>020-022>026-101>103-230100-
CENTRAL WYOMING

CITY           SKY/WX    TMP DP  RH WIND       PRES   REMARKS
BIG PINEY      MOCLDY    45  26  47 W8        29.65S
6HR MIN TEMP:  43; 6HR MAX TEMP:  56; 6HR PCP: TRACE;

PINEDALE       CLOUDY    32  27  80 W15G22    29.64S WCI  22
DUBOIS         FAIR      32  23  69 W21G29    29.51S WCI  20
LANDER         NOT AVBL
RIVERTON       MOCLDY    39  31  72 SW13      29.51F WCI  31
6HR MIN TEMP:  35; 6HR MAX TEMP:  46;

CASPER         CLOUDY    40  29  64 SW29G38   29.55R WCI  29
6HR MIN TEMP:  39; 6HR MAX TEMP:  47;

DOUGLAS        CLOUDY   N/A N/A N/A W18G31    29.49S

$$
WYZ021-027>030-104>119-230100-
SOUTHERN WYOMING

CITY           SKY/WX    TMP DP  RH WIND       PRES   REMARKS
EVANSTON       LGT SNOW  31  30  96 W17       29.79R VSB 3/4 WCI  19
6HR MIN TEMP:  31; 6HR MAX TEMP:  34; 6HR PCP:  0.07;

KEMMERER       LGT SNOW  30  30 100 W18       29.70F WCI  18
FORT BRIDGER   FLURRIES  33  33 100 NW15      29.77R WCI  23
ROCK SPRINGS   CLOUDY    34  30  85 W25G32    29.68R WCI  21
6HR MIN TEMP:  32; 6HR MAX TEMP:  40; 6HR PCP:  0.05;

DIXON          CLOUDY    39  28  63 S15G26    29.76F WCI  30
RAWLINS        CLOUDY    35  26  69 SW22G35   29.64F WCI  23
6HR MIN TEMP:  32; 6HR MAX TEMP:  45; 6HR PCP:  0.02;

SARATOGA       FAIR      36  28  75 SW12      29.67F WCI  27
LARAMIE        CLOUDY    36  25  64 SW28G44   29.64F WCI  23
6HR MIN TEMP:  36; 6HR MAX TEMP:  48;

CHEYENNE       CLOUDY    44  25  47 W17G29    29.61S
6HR MIN TEMP:  44; 6HR MAX TEMP:  55;

TORRINGTON     CLOUDY    50  30  46 W20G28    29.55S
6HR MIN TEMP:  49; 6HR MAX TEMP:  58;

PINE BLUFFS    CLOUDY    46  18  31 SW10G20   29.59S

$$


USA.gov is the U.S. government's official web portal to all federal, state and local government web resources and services.